Overview Statistics Trail Chart Weather Telemetry Raw packets
 

This is the latest recevied weather packets stored in our database for station/object KH6DH-13. If no packets are shown the sender has not sent any weather packets the latest 10 day(s).

<< 1 2 3 4 5 6 7 >>
Time Temp. Humidity Pressure Rain* Wind** Luminosity Snow
1788631277 25° C - - 0 mm 1.79 m/s, 14° - -
1788630675 25° C - - 0 mm 0 m/s - -
1788630074 25° C - - 0 mm 1.34 m/s, 70° - -
1788629473 24.44° C - - 0 mm 0.89 m/s, 229° - -
1788628872 24.44° C - - 0 mm 0 m/s - -
1788628271 24.44° C - - 0 mm 0.45 m/s, 38° - -
1788627670 23.89° C - - 0 mm 1.34 m/s, 32° - -
1788627069 24.44° C - - 0 mm 0 m/s - -
1788626468 23.89° C - - 0 mm 0.89 m/s, 90° - -
1788625864 24.44° C - - 0.51 mm 0 m/s - -
1788625260 24.44° C - - 0.51 mm 0 m/s - -
1788624659 23.89° C - - 0.51 mm 0.45 m/s, 135° - -
1788624058 24.44° C - - 0.51 mm 0.45 m/s, 39° - -
1788623457 24.44° C - - 0.51 mm 0.45 m/s, 3° - -
1788622856 25° C - - 0.51 mm 0.45 m/s, 24° - -
1788622255 23.89° C - - 0 mm 0.89 m/s, 28° - -
1788621654 24.44° C - - 0 mm 0.89 m/s, 359° - -
1788621053 24.44° C - - 0 mm 1.79 m/s, 311° - -
1788620452 24.44° C - - 0 mm 0.45 m/s, 56° - -
1788619851 24.44° C - - 0 mm 0 m/s - -
1788619250 24.44° C - - 0 mm 0 m/s - -
1788618649 24.44° C - - 0.25 mm 0 m/s - -
1788618048 24.44° C - - 0.25 mm 0 m/s - -
1788617447 24.44° C - - 0.25 mm 0 m/s - -
1788616846 24.44° C - - 0.25 mm 0 m/s - -

* Rain latest hour (hover to see other rain measurements)
** Current wind speed in m/s (hover to see current wind gust speed)